Location: *
(44.1392°N, 4.8079°E)
Time: 20:41:04
(UTC+00:00)

NOSS 2-2 (D) - Pass Details

Date: 21 June 2021
Orbit: 453 x 1754 km, 63.3° (Epoch: 28 July)

Event Time Altitude Azimuth Distance (km) Brightness Sun altitude
Exits shadow 00:46:50 30° 106° (ESE) 843 4.2 -20.8°
Drops below altitude 10° 00:49:38 10° 55° (NE) 1,648 6.4 -20.7°
Sets 00:52:01 0° 45° (NE) 2,618 7.8 -20.6°
